Orbital Elements at Epoch 2459200.5 (2020-Dec-17.0) TDB
Reference: JPL 10 (heliocentric ecliptic J2000)
Element | Value | Uncertainty (1-sigma) | Units |
e | .1474498872022569 | 5.6939e-08 | |
a | 2.279854433311963 | 1.6079e-08 | au |
q | 1.943690154282548 | 1.362e-07 | au |
i | 2.157050306230941 | 6.2951e-06 | deg |
node | 70.80116228937749 | 0.00018111 | deg |
peri | 24.16880276465228 | 0.000183 | deg |
M | 56.98088977351033 | 3.0005e-05 | deg |
tp | 2459001.484991015438 (2020-May-31.98499102) | 0.00010364 | TDB |
period | 1257.35844981047 3.44 | 1.3302e-05 3.642e-08 | d yr |
n | .286314535090821 | 3.0289e-09 | deg/d |
Q | 2.616018712341377 | 1.845e-08 | au |
|
| | Orbit Determination Parameters
Additional Information
|